Location: Thompson
(55.7500°N, 97.8670°W)
Time: 16:30:13
(UTC-05:00)

Cosmos 1666 - Visible Passes

Search period start: 16 September 2014 00:00
Search period end: 26 September 2014 00:00
Orbit: 517 x 543 km, 82.5° (Epoch: 15 September)

Date Brightness Start Highest point End Pass type
(mag) Time Alt. Az. Time Alt. Az. Time Alt. Az.
16 Sep 6.4 05:13:35 10° NNE 05:15:16 12° NE 05:16:57 10° E visible
16 Sep 3.8 20:48:25 10° SSW 20:52:16 51° WNW 20:56:10 10° N visible
17 Sep 6.5 05:03:14 10° NNE 05:04:44 12° NE 05:06:13 10° ENE visible
17 Sep 3.7 20:37:54 10° SSW 20:41:45 55° WNW 20:45:40 10° N visible
18 Sep 6.5 04:52:56 10° NE 04:54:11 11° NE 04:55:27 10° ENE visible
18 Sep 3.4 06:27:05 10° N 06:31:05 65° ENE 06:35:02 10° SSE visible
18 Sep 3.6 20:27:21 10° SSW 20:31:14 58° WNW 20:35:11 10° N visible
18 Sep 6.6 22:07:50 10° WNW 22:08:12 10° NW 22:08:34 10° NW visible
19 Sep 6.6 04:42:41 10° NE 04:43:38 11° NE 04:44:36 10° ENE visible
19 Sep 3.5 06:16:35 10° N 06:20:34 61° ENE 06:24:30 10° SSE visible
19 Sep 3.4 20:16:49 10° SSW 20:20:43 62° WNW 20:24:41 10° N visible
19 Sep 6.6 21:56:44 10° WNW 21:57:39 11° NW 21:58:33 10° NW visible
20 Sep 6.6 04:32:35 10° NE 04:33:05 10° NE 04:33:34 10° ENE visible
20 Sep 3.6 06:06:04 10° N 06:10:02 58° ENE 06:13:58 10° SSE visible
20 Sep 3.3 20:06:16 10° SSW 20:10:12 65° WNW 20:14:10 10° N visible
20 Sep 6.5 21:45:51 10° WNW 21:47:05 11° NW 21:48:18 10° NW visible
21 Sep 3.7 05:55:34 10° N 05:59:31 54° ENE 06:03:25 10° SSE visible
21 Sep 6.4 21:35:02 10° WNW 21:36:31 12° NW 21:37:59 10° NNW visible
22 Sep 3.8 05:45:03 10° N 05:48:58 51° ENE 05:52:51 10° SSE visible
22 Sep 6.3 21:24:15 10° W 21:25:56 12° NW 21:27:37 10° NNW visible
23 Sep 3.9 05:34:31 10° N 05:38:25 48° ENE 05:42:17 10° SSE visible
23 Sep 6.2 21:13:29 10° W 21:15:21 13° NW 21:17:13 10° NNW visible
24 Sep 4.0 05:24:00 10° N 05:27:52 46° ENE 05:31:42 10° SSE visible
24 Sep 6.2 21:02:44 10° W 21:04:45 14° WNW 21:06:47 10° NNW visible
25 Sep 4.0 05:13:28 10° N 05:17:18 43° ENE 05:21:06 10° SE visible
25 Sep 6.1 20:52:00 10° W 20:54:10 14° WNW 20:56:21 10° NNW visible
